Ludington, MI

2:47 PM EDT on August 25, 2019 (GMT -0400)
Mason County

Weather History for KLDM - May, 2019

Change the Weather History Date:

Friday, May 3, 2019

  Actual Average Record
Temperature  
Mean Temperature 44 °F -  
Max Temperature 55 °F 60 °F 81 °F (1959)
Min Temperature 33 °F 37 °F 24 °F (2003)
Degree Days  
Heating Degree Days 21    
Moisture  
Dew Point 37 °F    
Average Humidity 77    
Maximum Humidity 98    
Minimum Humidity 55    
Precipitation  
Precipitation 0.00 in - - ()
Sea Level Pressure  
Sea Level Pressure 30.09 in    
Wind  
Wind Speed 4 mph (North)    
Max Wind Speed 16 mph    
Max Gust Speed 23 mph    
Visibility 8 miles    
Events Fog    
Averages and records for this station are not official NWS values.
T = Trace of Precipitation, MM = Missing Value Source: NWS Daily Summary

Daily Weather History Graph

Daily Weather History Graph

Search for Another Location

Airport or City:

Astronomy

May. 03, 2019 Rise Set
Actual Time 6:34 AM EDT 8:50 PM EDT
Civil Twilight 6:02 AM EDT 9:22 PM EDT
Nautical Twilight 5:23 AM EDT 10:02 PM EDT
Astronomical Twilight 4:39 AM EDT 10:46 PM EDT
Moon 6:21 AM EDT (5/3) 7:33 PM EDT (5/3)
Length of Visible Light 15h 19m
Length of Day
14h 16m
Waning Crescent, 2% of the Moon is Illuminated
May 3
Waning Crescent
May 4
New
May 11
First Quarter
May 18
Full
May 26
Last Quarter

Hourly Weather History & Observations

Time (EDT) Temp. Windchill Dew Point Humidity Pressure Visibility Wind Dir Wind Speed Gust Speed Precip Events Conditions
12:15 AM 41.9 °F - 38.5 °F 88% 30.10 in 10.0 mi Calm Calm - N/A   Overcast
12:35 AM 41.4 °F - 38.5 °F 89% 30.10 in 10.0 mi Calm Calm - N/A   Scattered Clouds
12:55 AM 39.6 °F - 38.1 °F 95% 30.10 in 10.0 mi Calm Calm - N/A   Clear
1:15 AM 37.9 °F - 37.0 °F 97% 30.11 in 10.0 mi Calm Calm - N/A   Clear
1:35 AM 38.1 °F - 37.4 °F 97% 30.10 in 10.0 mi Calm Calm - N/A   Clear
1:36 AM 38.1 °F - 37.4 °F 97% 30.10 in 10.0 mi Calm Calm - N/A   Clear
1:55 AM 36.3 °F - 35.6 °F 97% 30.10 in 2.0 mi Calm Calm - N/A   Clear
1:56 AM 36.1 °F - 35.4 °F 97% 30.10 in 2.0 mi Calm Calm - N/A   Clear
2:15 AM 36.7 °F 34.1 °F 36.0 °F 97% 30.10 in 10.0 mi NNW 3.5 mph - N/A   Clear
2:35 AM 36.7 °F 32.9 °F 36.0 °F 97% 30.10 in 10.0 mi North 4.6 mph - N/A   Clear
2:55 AM 37.0 °F 33.3 °F 36.3 °F 97% 30.10 in 10.0 mi North 4.6 mph - N/A   Clear
3:15 AM 36.5 °F 32.7 °F 35.8 °F 97% 30.10 in 10.0 mi North 4.6 mph - N/A   Clear
3:16 AM 36.7 °F 32.9 °F 36.0 °F 97% 30.10 in 10.0 mi North 4.6 mph - N/A   Clear
3:35 AM 36.3 °F - 35.6 °F 97% 30.10 in 10.0 mi Calm Calm - N/A   Clear
3:36 AM 36.5 °F - 35.6 °F 97% 30.10 in 10.0 mi Calm Calm - N/A   Clear
3:55 AM 36.3 °F - 35.4 °F 97% 30.10 in 10.0 mi Calm Calm - N/A   Clear
3:56 AM 36.5 °F - 35.6 °F 97% 30.10 in 10.0 mi Calm Calm - N/A   Clear
4:15 AM 33.6 °F - 32.9 °F 97% 30.10 in 1.2 mi Calm Calm - N/A   Mist
4:35 AM 33.4 °F - 32.7 °F 97% 30.10 in 1.2 mi Calm Calm - N/A   Mist
4:55 AM 34.0 °F 31.0 °F 33.3 °F 97% 30.11 in 5.0 mi North 3.5 mph - N/A   Clear
5:15 AM 34.7 °F 30.6 °F 34.0 °F 97% 30.11 in 2.5 mi North 4.6 mph - N/A   Mostly Cloudy
5:16 AM 34.7 °F 30.6 °F 34.0 °F 97% 30.11 in 2.5 mi North 4.6 mph - N/A   Mostly Cloudy
5:35 AM 34.5 °F 30.4 °F 33.8 °F 97% 30.11 in 0.8 mi North 4.6 mph - N/A   Overcast
5:36 AM 34.5 °F 30.4 °F 33.8 °F 97% 30.11 in 0.8 mi North 4.6 mph - N/A   Overcast
5:55 AM 35.1 °F - 34.3 °F 97% 30.11 in 0.5 mi Calm Calm - N/A Fog Fog
5:56 AM 35.1 °F - 34.3 °F 97% 30.11 in 0.5 mi Calm Calm - N/A Fog Fog
6:15 AM 35.6 °F - 34.7 °F 97% 30.11 in 0.5 mi Calm Calm - N/A Fog Fog
6:35 AM 35.6 °F 32.8 °F 34.7 °F 97% 30.11 in 0.5 mi NNE 3.5 mph - N/A Fog Fog
6:55 AM 35.1 °F 32.2 °F 34.3 °F 97% 30.11 in 0.5 mi NNE 3.5 mph - N/A Fog Fog
6:56 AM 35.1 °F 32.2 °F 34.3 °F 97% 30.11 in 0.5 mi NNE 3.5 mph - N/A Fog Fog
7:15 AM 34.9 °F 32.0 °F 34.2 °F 97% 30.11 in 0.2 mi NE 3.5 mph - N/A Fog Fog
7:16 AM 34.9 °F 32.0 °F 34.2 °F 97% 30.11 in 0.2 mi NE 3.5 mph - N/A Fog Fog
7:35 AM 35.4 °F 31.5 °F 34.7 °F 97% 30.12 in 0.2 mi NE 4.6 mph - N/A Fog Fog
7:36 AM 35.4 °F 32.6 °F 34.7 °F 97% 30.12 in 0.2 mi ENE 3.5 mph - N/A Fog Fog
7:55 AM 36.0 °F 33.3 °F 35.4 °F 98% 30.12 in 0.2 mi NNE 3.5 mph - N/A Fog Fog
8:15 AM 36.9 °F 34.3 °F 36.1 °F 97% 30.13 in 0.2 mi ENE 3.5 mph - N/A Fog Fog
8:35 AM 37.8 °F 35.3 °F 37.2 °F 98% 30.13 in 0.5 mi ENE 3.5 mph - N/A Fog Fog
8:55 AM 38.7 °F 33.6 °F 37.9 °F 97% 30.12 in 7.0 mi NE 6.9 mph - N/A   Overcast
8:56 AM 38.8 °F 33.8 °F 38.1 °F 97% 30.12 in 7.0 mi ENE 6.9 mph - N/A   Overcast
9:15 AM 39.6 °F 36.3 °F 39.0 °F 98% 30.13 in 10.0 mi NE 4.6 mph - N/A   Mostly Cloudy
9:16 AM 39.9 °F 35.8 °F 39.2 °F 97% 30.13 in 10.0 mi NE 5.8 mph - N/A   Mostly Cloudy
9:35 AM 41.7 °F 37.3 °F 40.6 °F 96% 30.12 in 10.0 mi NNE 6.9 mph - N/A   Mostly Cloudy
9:36 AM 41.5 °F 37.1 °F 40.5 °F 96% 30.13 in 10.0 mi NE 6.9 mph - N/A   Mostly Cloudy
9:55 AM 43.9 °F 42.3 °F 41.2 °F 90% 30.12 in 10.0 mi NE 3.5 mph - N/A   Scattered Clouds
10:15 AM 45.7 °F 42.7 °F 40.1 °F 81% 30.12 in 10.0 mi NE 5.8 mph - N/A   Scattered Clouds
10:16 AM 45.7 °F 43.4 °F 39.9 °F 80% 30.12 in 10.0 mi NNE 4.6 mph - N/A   Scattered Clouds
10:35 AM 48.7 °F - 41.0 °F 75% 30.12 in 10.0 mi ENE 3.5 mph - N/A   Clear
10:36 AM 48.9 °F - 41.2 °F 75% 30.12 in 10.0 mi Calm Calm - N/A   Clear
10:55 AM 50.2 °F - 40.5 °F 69% 30.12 in 10.0 mi ENE 3.5 mph - N/A   Clear
10:56 AM 50.2 °F - 40.5 °F 69% 30.12 in 10.0 mi ENE 3.5 mph - N/A   Clear
11:15 AM 51.8 °F - 39.9 °F 64% 30.11 in 10.0 mi NNE 4.6 mph - N/A   Clear
11:35 AM 51.6 °F - 39.0 °F 62% 30.11 in 10.0 mi NNE 9.2 mph - N/A   Clear
11:55 AM 53.2 °F - 38.3 °F 57% 30.11 in 10.0 mi NNE 6.9 mph 17.3 mph N/A   Scattered Clouds
12:15 PM 53.2 °F - 37.9 °F 56% 30.10 in 10.0 mi NNE 4.6 mph - N/A   Mostly Cloudy
12:16 PM 53.2 °F - 37.9 °F 56% 30.10 in 10.0 mi NE 4.6 mph - N/A   Mostly Cloudy
12:35 PM 52.0 °F - 40.3 °F 64% 30.11 in 10.0 mi NNW 8.1 mph - N/A   Overcast
12:36 PM 51.8 °F - 40.3 °F 65% 30.11 in 10.0 mi NNW 8.1 mph - N/A   Overcast
12:55 PM 52.3 °F - 39.9 °F 63% 30.11 in 10.0 mi North 10.4 mph - N/A   Overcast
1:15 PM 51.1 °F - 39.7 °F 65% 30.11 in 10.0 mi NNW 11.5 mph - N/A   Overcast
1:35 PM 52.7 °F - 39.6 °F 61% 30.10 in 10.0 mi NW 9.2 mph - N/A   Overcast
1:36 PM 52.7 °F - 39.7 °F 61% 30.10 in 10.0 mi NNW 9.2 mph - N/A   Overcast
1:55 PM 54.0 °F - 38.5 °F 56% 30.10 in 10.0 mi North 12.7 mph 18.4 mph N/A   Overcast
1:56 PM 53.8 °F - 38.1 °F 55% 30.09 in 10.0 mi North 12.7 mph 18.4 mph N/A   Overcast
2:15 PM 53.6 °F - 39.4 °F 59% 30.10 in 10.0 mi North 10.4 mph - N/A   Overcast
2:16 PM 53.4 °F - 39.2 °F 59% 30.09 in 10.0 mi North 10.4 mph - N/A   Overcast
2:35 PM 51.6 °F - 38.8 °F 62% 30.09 in 10.0 mi NNW 11.5 mph - N/A   Overcast
2:55 PM 54.9 °F - 39.7 °F 57% 30.09 in 10.0 mi NNW 11.5 mph 17.3 mph N/A   Overcast
3:15 PM 53.8 °F - 39.6 °F 59% 30.07 in 10.0 mi NNW 12.7 mph - N/A   Overcast
3:35 PM 55.2 °F - 39.7 °F 56% 30.07 in 10.0 mi North 12.7 mph 17.3 mph N/A   Overcast
3:36 PM 55.0 °F - 39.6 °F 56% 30.07 in 10.0 mi North 11.5 mph 17.3 mph N/A   Overcast
3:55 PM 54.1 °F - 39.2 °F 57% 30.07 in 10.0 mi NNW 13.8 mph 18.4 mph N/A   Scattered Clouds
3:56 PM 54.1 °F - 39.2 °F 57% 30.07 in 10.0 mi North 15.0 mph 18.4 mph N/A   Scattered Clouds
4:15 PM 53.8 °F - 38.3 °F 56% 30.06 in 10.0 mi North 15.0 mph 23.0 mph N/A   Clear
4:35 PM 53.4 °F - 38.3 °F 57% 30.05 in 10.0 mi North 15.0 mph - N/A   Clear
4:55 PM 52.9 °F - 37.6 °F 56% 30.05 in 10.0 mi NNW 12.7 mph - N/A   Clear
5:15 PM 53.2 °F - 37.9 °F 56% 30.06 in 10.0 mi NNW 15.0 mph 20.7 mph N/A   Clear
5:16 PM 53.1 °F - 37.6 °F 56% 30.06 in 10.0 mi NNW 15.0 mph 20.7 mph N/A   Clear
5:35 PM 51.8 °F - 36.7 °F 56% 30.06 in 10.0 mi North 15.0 mph 18.4 mph N/A   Clear
5:36 PM 51.8 °F - 36.7 °F 56% 30.06 in 10.0 mi North 16.1 mph - N/A   Clear
5:55 PM 50.9 °F - 36.7 °F 58% 30.06 in 10.0 mi North 13.8 mph 20.7 mph N/A   Clear
6:15 PM 49.5 °F - 36.5 °F 61% 30.07 in 10.0 mi North 15.0 mph 19.6 mph N/A   Clear
6:36 PM 47.5 °F - 36.3 °F 65% 30.06 in 10.0 mi NNW 10.4 mph - N/A   Clear
6:55 PM 47.3 °F - 35.8 °F 64% 30.06 in 10.0 mi North 10.4 mph 16.1 mph N/A   Clear
6:56 PM 47.3 °F - 35.8 °F 64% 30.06 in 10.0 mi North 10.4 mph 16.1 mph N/A   Clear
7:15 PM 46.4 °F 41.1 °F 35.2 °F 65% 30.07 in 10.0 mi North 11.5 mph 17.3 mph N/A   Clear
7:16 PM 46.6 °F - 35.1 °F 64% 30.07 in 10.0 mi North 10.4 mph - N/A   Scattered Clouds
7:35 PM 45.9 °F 41.2 °F 34.5 °F 65% 30.07 in 10.0 mi North 9.2 mph - N/A   Scattered Clouds
7:55 PM 45.7 °F 41.5 °F 34.0 °F 64% 30.05 in 10.0 mi North 8.1 mph - N/A   Scattered Clouds
8:15 PM 45.5 °F - 33.4 °F 63% 30.05 in 10.0 mi Calm Calm - N/A   Scattered Clouds
8:16 PM 45.5 °F 44.2 °F 33.3 °F 62% 30.05 in 10.0 mi North 3.5 mph - N/A   Scattered Clouds
8:35 PM 45.7 °F 43.4 °F 33.3 °F 62% 30.04 in 10.0 mi North 4.6 mph - N/A   Clear
8:36 PM 45.9 °F 42.9 °F 33.1 °F 61% 30.04 in 10.0 mi North 5.8 mph - N/A   Scattered Clouds
8:55 PM 45.9 °F 42.9 °F 32.7 °F 60% 30.04 in 10.0 mi North 5.8 mph - N/A   Clear
9:15 PM 45.3 °F 44.0 °F 33.1 °F 62% 30.05 in 10.0 mi North 3.5 mph - N/A   Clear
9:35 PM 45.7 °F - 32.5 °F 60% 30.04 in 10.0 mi Calm Calm - N/A   Clear
9:36 PM 45.7 °F - 32.5 °F 60% 30.04 in 10.0 mi Calm Calm - N/A   Clear
9:55 PM 44.8 °F - 33.1 °F 64% 30.05 in 10.0 mi Calm Calm - N/A   Clear
9:56 PM 44.8 °F - 33.1 °F 64% 30.04 in 10.0 mi Calm Calm - N/A   Clear
10:15 PM 44.4 °F - 33.3 °F 65% 30.03 in 10.0 mi Calm Calm - N/A   Clear
10:16 PM 44.4 °F - 33.3 °F 65% 30.03 in 10.0 mi Calm Calm - N/A   Clear
10:35 PM 43.2 °F - 34.3 °F 71% 30.03 in 10.0 mi Calm Calm - N/A   Clear
10:55 PM 41.9 °F - 34.5 °F 75% 30.03 in 10.0 mi Calm Calm - N/A   Clear
11:15 PM 41.2 °F - 35.1 °F 79% 30.02 in 10.0 mi Calm Calm - N/A   Clear
11:16 PM 41.4 °F - 35.1 °F 78% 30.03 in 10.0 mi Calm Calm - N/A   Clear
11:35 PM 40.5 °F - 34.9 °F 80% 30.02 in 10.0 mi Calm Calm - N/A   Clear
11:36 PM 40.5 °F - 34.7 °F 80% 30.02 in 10.0 mi Calm Calm - N/A   Clear
11:55 PM 39.0 °F 36.8 °F 34.5 °F 84% 30.02 in 10.0 mi North 3.5 mph - N/A   Clear